Date String (YYYY-MM-DD hh:mm:ss) UTC,Instrument flags,Ambient pressure (hPa),Sample flow (lpm),Bypass flow (lpm),Sample temperature (°C),Ambient temperature (°C),ASC tube jacket temperature (°C),LED temperature (°C),Box temperature (°C),Sample RH (%),Span deviation,Mass concentration (μg/m³),Mass concentration (μg/m³),Mass concentration (μg/m³)
DateTimeUTC,F1_M11,P_M11,Q1_M11,Q2_M11,T1_M11,T2_M11,T3_M11,T4_M11,T5_M11,U1_M11,ZSPAN_M11,X2_M11,X0_M11,X1_M11
2022-03-18 14:00:00,,0826.0,4.99,0.00,22.3,21.6,00.0,31.4,24.0,10.4,0000.0,0001.58,0002.84,0001.27
2022-03-18 14:01:00,,0826.0,5.00,0.00,22.3,21.6,00.0,31.4,24.0,10.4,0000.0,0001.57,0002.85,0001.26
2022-03-18 14:02:00,,0826.0,5.00,0.00,22.3,21.6,00.0,31.3,24.0,10.5,0000.0,0001.54,0002.56,0001.27
2022-03-18 14:03:00,,0826.0,5.00,0.00,22.3,21.6,00.0,31.3,24.0,10.5,0000.0,0001.53,0002.33,0001.26
2022-03-18 14:04:00,,0826.0,5.00,0.00,22.3,21.6,00.0,31.3,24.0,10.5,0000.0,0001.51,0002.30,0001.24
2022-03-18 14:05:00,,0826.0,5.01,0.00,22.3,21.5,00.0,31.3,24.0,10.5,0000.0,0001.51,0002.30,0001.24
2022-03-18 14:06:00,,0825.9,5.01,0.00,22.3,21.5,00.0,31.3,24.0,10.5,0000.0,0001.51,0002.30,0001.25
2022-03-18 14:07:00,,0826.0,5.00,0.00,22.3,21.5,00.0,31.3,24.1,10.6,0000.0,0001.50,0002.26,0001.26
2022-03-18 14:08:00,,0826.0,4.99,0.00,22.3,21.5,00.0,31.3,24.1,10.6,0000.0,0001.51,0002.29,0001.27
2022-03-18 14:09:00,,0826.0,5.00,0.00,22.3,21.6,00.0,31.3,24.1,10.6,0000.0,0001.52,0002.53,0001.27
2022-03-18 14:10:00,,0826.0,4.98,0.00,22.4,22.4,00.0,31.3,24.2,10.6,0000.0,0001.55,0003.17,0001.28
2022-03-18 14:11:00,,0826.0,5.00,0.00,22.5,23.4,00.0,31.4,24.5,10.4,0000.0,0001.56,0003.21,0001.27
2022-03-18 14:12:00,,0826.0,5.00,0.00,22.6,23.4,00.0,31.4,24.6,10.3,0000.0,0001.56,0003.17,0001.27
2022-03-18 14:13:00,,0826.0,5.00,0.00,22.7,23.2,00.0,31.4,24.6,10.3,0000.0,0001.57,0003.18,0001.26
2022-03-18 14:14:00,,0826.0,5.01,0.00,22.7,23.0,00.0,31.5,24.6,10.3,0000.0,0001.60,0003.30,0001.24
2022-03-18 14:15:00,,0826.0,5.00,0.00,22.7,22.8,00.0,31.5,24.6,10.4,0000.0,0001.62,0003.41,0001.24
2022-03-18 14:16:00,,0826.0,4.99,0.00,22.7,22.6,00.0,31.5,24.5,10.5,0000.0,0001.59,0003.33,0001.22
2022-03-18 14:17:00,,0826.0,5.00,0.00,22.7,22.5,00.0,31.5,24.5,10.6,0000.0,0001.58,0003.31,0001.20
2022-03-18 14:18:00,,0826.0,5.01,0.00,22.7,22.4,00.0,31.5,24.6,10.4,0000.0,0001.57,0003.30,0001.19
2022-03-18 14:19:00,,0826.1,5.00,0.00,22.7,22.3,00.0,31.5,24.5,10.3,0000.0,0001.53,0003.25,0001.16
2022-03-18 14:20:00,,0826.1,5.00,0.00,22.7,22.2,00.0,31.5,24.5,10.2,0000.0,0001.49,0003.02,0001.14
2022-03-18 14:21:00,,0826.0,4.99,0.00,22.7,22.2,00.0,31.5,24.5,10.5,0000.0,0001.44,0002.23,0001.12
2022-03-18 14:22:00,,0826.0,5.00,0.00,22.7,22.1,00.0,31.6,24.5,10.4,0000.0,0001.42,0002.21,0001.11
2022-03-18 14:23:00,,0826.0,5.01,0.00,22.7,22.1,00.0,31.6,24.5,10.4,0000.0,0001.45,0002.29,0001.10
2022-03-18 14:24:00,,0826.0,4.99,0.00,22.7,22.1,00.0,31.6,24.5,10.4,0000.0,0001.45,0002.30,0001.09
2022-03-18 14:25:00,,0826.0,5.00,0.00,22.7,22.1,00.0,31.6,24.5,10.3,0000.0,0001.44,0002.25,0001.09
2022-03-18 14:26:00,,0826.0,5.00,0.00,22.7,22.0,00.0,31.6,24.4,10.4,0000.0,0001.45,0002.24,0001.08
2022-03-18 14:27:00,,0826.1,5.00,0.00,22.7,22.0,00.0,31.6,24.4,10.4,0000.0,0001.46,0002.30,0001.07
2022-03-18 14:28:00,,0826.1,5.01,0.00,22.7,22.0,00.0,31.6,24.4,10.4,0000.0,0001.49,0002.38,0001.07
2022-03-18 14:29:00,,0826.1,5.00,0.00,22.6,21.9,00.0,31.6,24.4,10.3,0000.0,0001.52,0002.40,0001.08
2022-03-18 14:30:00,,0826.1,5.00,0.00,22.6,21.9,00.0,31.6,24.4,10.4,0000.0,0001.55,0002.50,0001.10
2022-03-18 14:31:00,,0826.1,5.00,0.00,22.6,21.9,00.0,31.6,24.4,10.3,0000.0,0001.56,0003.21,0001.11
2022-03-18 14:32:00,,0826.1,5.00,0.00,22.6,21.9,00.0,31.6,24.4,10.3,0000.0,0001.57,0003.27,0001.11
2022-03-18 14:33:00,,0826.1,4.99,0.00,22.6,21.9,00.0,31.6,24.4,10.3,0000.0,0001.59,0003.30,0001.13
2022-03-18 14:34:00,,0826.1,5.00,0.00,22.6,21.9,00.0,31.5,24.4,10.2,0000.0,0001.58,0003.29,0001.14
2022-03-18 14:35:00,,0826.1,5.00,0.00,22.6,21.9,00.0,31.5,24.4,10.2,0000.0,0001.55,0003.25,0001.15
2022-03-18 14:36:00,,0826.2,5.00,0.00,22.6,21.9,00.0,31.5,24.4,10.2,0000.0,0001.58,0003.30,0001.16
2022-03-18 14:37:00,,0826.1,5.00,0.00,22.7,21.9,00.0,31.6,24.4,10.6,0000.0,0001.56,0003.23,0001.16
2022-03-18 14:38:00,,0826.1,5.00,0.00,22.7,21.9,00.0,31.6,24.4,11.5,0000.0,0001.54,0003.17,0001.15
2022-03-18 14:39:00,,0826.1,5.00,0.00,22.7,21.9,00.0,31.6,24.4,11.1,0000.0,0001.53,0003.27,0001.15
2022-03-18 14:40:00,,0826.1,4.99,0.00,22.7,21.9,00.0,31.6,24.5,11.3,0000.0,0001.51,0003.31,0001.15
2022-03-18 14:41:00,,0826.1,5.01,0.00,22.7,21.9,00.0,31.6,24.5,11.5,0000.0,0001.49,0003.24,0001.14
2022-03-18 14:42:00,,0826.3,5.00,0.00,22.7,21.9,00.0,31.6,24.5,12.4,0000.0,0001.49,0002.75,0001.14
2022-03-18 14:43:00,,0826.1,5.00,0.00,22.7,22.0,00.0,31.6,24.5,12.9,0000.0,0001.51,0002.53,0001.15
2022-03-18 14:44:00,,0826.1,4.99,0.00,22.7,21.9,00.0,31.6,24.5,12.8,0000.0,0001.55,0002.56,0001.16
2022-03-18 14:45:00,,0826.2,5.00,0.00,22.7,21.9,00.0,31.6,24.5,12.7,0000.0,0001.55,0002.54,0001.17
2022-03-18 14:46:00,,0826.1,4.99,0.00,22.7,21.9,00.0,31.6,24.5,12.3,0000.0,0001.56,0002.55,0001.18
2022-03-18 14:47:00,,0826.2,5.00,0.00,22.7,21.9,00.0,31.6,24.5,12.6,0000.0,0001.54,0002.54,0001.19
2022-03-18 14:48:00,,0826.2,5.00,0.00,22.7,21.9,00.0,31.6,24.5,13.1,0000.0,0001.52,0002.47,0001.20
2022-03-18 14:49:00,,0826.2,5.00,0.00,22.7,21.9,00.0,31.6,24.5,13.2,0000.0,0001.53,0002.45,0001.23
2022-03-18 14:50:00,,0826.2,5.02,0.00,22.7,21.9,00.0,31.6,24.5,13.0,0000.0,0001.54,0002.32,0001.27
2022-03-18 14:51:00,,0826.3,5.00,0.00,22.7,21.9,00.0,31.6,24.4,12.6,0000.0,0001.56,0002.29,0001.30
2022-03-18 14:52:00,,0826.3,5.00,0.00,22.6,21.8,00.0,31.6,24.4,12.0,0000.0,0001.62,0002.41,0001.35
2022-03-18 14:53:00,,0826.3,4.99,0.00,22.6,21.8,00.0,31.5,24.4,11.9,0000.0,0001.68,0002.54,0001.39
2022-03-18 14:54:00,,0826.3,5.01,0.00,22.6,21.8,00.0,31.5,24.4,11.8,0000.0,0001.68,0002.57,0001.41
2022-03-18 14:55:00,,0826.3,5.00,0.00,22.6,21.8,00.0,31.5,24.4,12.1,0000.0,0001.66,0002.53,0001.43
2022-03-18 14:56:00,,0826.2,5.00,0.00,22.6,21.8,00.0,31.5,24.4,11.9,0000.0,0001.69,0002.60,0001.46
2022-03-18 14:57:00,,0826.2,5.00,0.00,22.6,21.8,00.0,31.5,24.3,12.3,0000.0,0001.74,0002.71,0001.49
2022-03-18 14:58:00,,0826.2,5.00,0.00,22.6,21.8,00.0,31.5,24.4,12.1,0000.0,0001.82,0002.79,0001.52
2022-03-18 14:59:00,,0826.3,5.00,0.00,22.6,21.9,00.0,31.5,24.4,12.3,0000.0,0001.86,0004.03,0001.54
